This is the latest recevied weather packets stored in our database for station/object WL7CLI. If no packets are shown the sender has not sent any weather packets the latest 1 day(s).
| Time | Temp. | Humidity | Pressure | Rain* | Wind** | Luminosity | Snow |
|---|---|---|---|---|---|---|---|
| 1778008575 | 15.56° C | 37% | 1010.9 hPa | 0 mm | - | - | - |
| 1778007504 | 15.56° C | 36% | 1010.9 hPa | 0 mm | 2.68 m/s, 349° | - | - |
| 1778007498 | 15.56° C | 36% | 1011 hPa | 0 mm | - | - | - |
| 1778007374 | 15.56° C | 38% | 1011 hPa | 0 mm | - | - | - |
| 1778006300 | 15° C | 38% | 1011.1 hPa | 0 mm | - | - | - |
| 1778006175 | 15° C | 39% | 1011.2 hPa | 0 mm | - | - | - |
| 1778005704 | 15° C | 39% | 1011.3 hPa | 0 mm | 1.79 m/s, 342° | - | - |
| 1778005099 | 14.44° C | 38% | 1011.3 hPa | 0 mm | - | - | - |
| 1778004975 | 14.44° C | 37% | 1011.2 hPa | 0 mm | - | - | - |
| 1778003904 | 14.44° C | 40% | 1011.2 hPa | 0 mm | 0 m/s | - | - |
| 1778003899 | 14.44° C | 40% | 1011.4 hPa | 0 mm | - | - | - |
| 1778002698 | 13.89° C | 40% | 1011.7 hPa | 0 mm | - | - | - |
| 1778002572 | 13.89° C | 43% | 1011.7 hPa | 0 mm | - | - | - |
| 1778002104 | 13.89° C | 43% | 1011.8 hPa | 0 mm | 1.79 m/s, 321° | - | - |
| 1778001498 | 13.89° C | 40% | 1011.8 hPa | 0 mm | - | - | - |
| 1778001375 | 13.89° C | 41% | 1011.8 hPa | 0 mm | - | - | - |
| 1778000304 | 13.89° C | 43% | 1011.9 hPa | 0 mm | 0.89 m/s, 310° | - | - |
| 1778000300 | 13.89° C | 43% | 1011.9 hPa | 0 mm | - | - | - |
| 1778000175 | 13.89° C | 42% | 1011.8 hPa | 0 mm | - | - | - |
| 1777999099 | 13.33° C | 43% | 1011.9 hPa | 0 mm | - | - | - |
| 1777998974 | 13.33° C | 42% | 1011.9 hPa | 0 mm | - | - | - |
| 1777998504 | 13.33° C | 43% | 1011.6 hPa | 0 mm | 0 m/s | - | - |
| 1777997899 | 12.78° C | 45% | 1011.7 hPa | 0 mm | - | - | - |
| 1777997774 | 12.78° C | 44% | 1011.8 hPa | 0 mm | - | - | - |
| 1777996704 | 12.22° C | 44% | 1011.4 hPa | 0 mm | 0 m/s | - | - |
* Rain latest hour (hover to see other rain measurements)
** Current wind speed in m/s (hover to see current wind gust speed)